Pelly Island, Northwest Territories

2:33 AM MDT on May 27, 2017 (GMT -0600)
Pelly Island

Weather History for CWND - July, 2013

Change the Weather History Date:

Tuesday, July 9, 2013

  Actual Average (CYUB) Record (CYUB)
Temperature  
Mean Temperature 36 °F -  
Max Temperature 42 °F 54 °F 78 °F (2007)
Min Temperature 29 °F 42 °F 35 °F (1996)
Degree Days  
Heating Degree Days 30    
Moisture  
Dew Point 37 °F    
Average Humidity 87    
Maximum Humidity 100    
Minimum Humidity 71    
Precipitation  
Precipitation 0.00 in - - ()
Sea Level Pressure  
Sea Level Pressure 29.81 in    
Wind  
Wind Speed 22 mph ()    
Max Wind Speed 28 mph    
Max Gust Speed 31 mph    
Averages and records for this station are not official NWS values.
T = Trace of Precipitation, MM = Missing Value Source: Averaged Metar Reports

Daily Weather History Graph

Daily Weather History Graph

Search for Another Location

Airport or City:

Trip Planner

Search our weather history database for the weather conditions in past years. The results will help you decide how hot, cold, wet, or windy it might be!

Date:

Astronomy

Dec. 31, 1969 Rise Set
Actual Time Sun does not set Sun does not set
Civil Twilight Sun does not set Sun does not set
Nautical Twilight Sun does not set Sun does not set
Astronomical Twilight Sun does not set Sun does not set
Moon 6:54 AM MDT (7/9) 1:05 AM MDT (7/9)
Length of Visible Light 24h 00m
Length of Day
24h 00m
New Moon, 2% of the Moon is Illuminated
Jul 9
New Moon
Jul 15
First Quarter
Jul 22
Full
Jul 29
Last Quarter
Aug 6
New

Hourly Weather History & Observations

Time (MDT) Temp. Windchill Dew Point Humidity Pressure Visibility Wind Dir Wind Speed Gust Speed Precip Events Conditions
12:00 AM 50 °F - 44 °F 71% 29.68 in - East 25.3 mph - -  
12:00 AM 50.2 °F - 43.5 °F 78% 29.68 in - East 25.3 mph - N/A   Unknown
1:00 AM 48.9 °F - 42.4 °F 78% 29.70 in - East 23.0 mph 29.9 mph N/A   Unknown
2:00 AM 47.1 °F - 41.9 °F 82% 29.71 in - East 21.9 mph - N/A   Unknown
3:00 AM 44.8 °F 35.9 °F 40.8 °F 86% 29.72 in - ENE 24.2 mph - N/A   Unknown
4:00 AM 44.2 °F 35.7 °F 39.9 °F 85% 29.73 in - ENE 21.9 mph - N/A   Unknown
5:00 AM 42.4 °F 33.3 °F 38.8 °F 87% 29.74 in - ENE 21.9 mph - N/A   Unknown
6:00 AM 42 °F - 38 °F 81% 29.75 in - ENE 23.0 mph - -  
6:00 AM 41.9 °F 32.3 °F 38.1 °F 86% 29.75 in - ENE 23.0 mph 28.8 mph N/A   Unknown
6:21 AM 29.5 °F - 30.2 °F 100% - - North - - N/A   Unknown
7:00 AM 41.2 °F 31.1 °F 37.2 °F 86% 29.76 in - ENE 24.2 mph - N/A   Unknown
8:00 AM 39.6 °F 29.2 °F 35.4 °F 85% 29.77 in - NE 23.0 mph - N/A   Unknown
9:00 AM 39.2 °F 27.8 °F 34.9 °F 84% 29.77 in - NE 27.6 mph - N/A   Unknown
10:00 AM 39.0 °F 28.3 °F 35.2 °F 86% 29.78 in - NE 24.2 mph 29.9 mph N/A   Unknown
11:00 AM 38.8 °F 28.5 °F 35.8 °F 89% 29.81 in - ENE 21.9 mph - N/A   Unknown
12:00 PM 39 °F - 36 °F 85% 29.82 in - ENE 24.2 mph - -  
12:00 PM 39.2 °F 28.5 °F 36.1 °F 89% 29.82 in - ENE 24.2 mph 29.9 mph N/A   Unknown
1:00 PM 39.0 °F 28.3 °F 36.1 °F 89% 29.83 in - NE 24.2 mph - N/A   Unknown
2:00 PM 38.7 °F 27.1 °F 36.0 °F 90% 29.83 in - NE 27.6 mph - N/A   Unknown
3:00 PM 38.5 °F 27.3 °F 35.6 °F 89% 29.85 in - NE 25.3 mph - N/A   Unknown
4:00 PM 38.8 °F 27.6 °F 35.8 °F 89% 29.86 in - NE 26.5 mph - N/A   Unknown
5:00 PM 39.4 °F 28.5 °F 36.0 °F 88% 29.87 in - NE 25.3 mph - N/A   Unknown
5:19 PM 29.5 °F - 30.7 °F 100% - - North - - N/A   Unknown
6:00 PM 39 °F - 36 °F 83% 29.88 in - NE 26.5 mph - -  
6:00 PM 39.0 °F 27.8 °F 35.6 °F 88% 29.88 in - NE 26.5 mph - N/A   Unknown
7:00 PM 38.7 °F 27.5 °F 35.2 °F 87% 29.90 in - NE 25.3 mph - N/A   Unknown
8:00 PM 39.0 °F 28.3 °F 35.4 °F 87% 29.92 in - NE 24.2 mph - N/A   Unknown
9:00 PM 36.7 °F 24.9 °F 34.2 °F 91% 29.93 in - NNE 25.3 mph 31.1 mph N/A   Unknown
10:00 PM 37.4 °F 26.1 °F 34.5 °F 89% 29.94 in - NNE 24.2 mph 29.9 mph N/A   Unknown
11:00 PM 37.0 °F 25.6 °F 33.8 °F 88% 29.96 in - NNE 24.2 mph - N/A   Unknown